Flag for Austria Weather past 2 weeks in Bruck an der Leitha, Lower Austria, Austria

Now
45 °F

Rain showers. Overcast.


Feels Like: 40 °F
Forecast: 44 / 53 °F
Wind: 10 mph from Northwest

Location: Wien / Schwechat-Flughafen

Current Time: Oct 22, 2014 at 5:38:55 PM

Latest Report: Oct 22, 2014 at 5:00 PM


Visibility: 16 mi

Pressure: 29.76 "Hg

Humidity: 81%

Dew point: 40 °F

Location of Bruck an der LeithaLocation

Historic Weather in Bruck an der Leitha — Graph

°F

Bruck an der Leitha temperature yesterday

Maximum temperature yesterday: 64 °F (at 1:00 PM)
Minimum temperature yesterday: 56 °F (at 7:00 PM)
Average temperature yesterday: 59 °F

Past Weeks' High & Low Weather Summary

 TemperatureHumidityPressure
High74 °F (Oct 9, 4:00 PM)100% (Oct 10, 7:00 AM)30.33 "Hg (Oct 10, 7:00 AM)
Low48 °F (Oct 22, 1:00 PM)52% (Oct 16, 2:00 PM)29.60 "Hg (Oct 22, 1:00 AM)
Average59 °F85%29.96 "Hg
* Reported Oct 7 3:00 PM — Oct 22 3:00 PM, Bruck an der Leitha, Weather by CustomWeather, © 2014

Note: Actual official high and low records may vary slightly from our data, if they occured in-between our weather recording intervals... More about our weather records

Advertising

Bruck an der Leitha weather history for previous 24 hours

 ConditionsComfort  
Time TempWeatherWind HumidityBarometerVisibility
3:00 PM
Oct 22
49 °FOvercast.12 mph73%29.73 "Hg19 mi
2:00 PM48 °FOvercast.13 mph77%29.72 "Hg12 mi
1:00 PM48 °FLight rain. Overcast.9 mph82%29.75 "Hg7 mi
12:00 PM49 °FOvercast.10 mph67%29.76 "Hg12 mi
11:00 AM49 °FOvercast.10 mph68%29.74 "Hg9 mi
10:00 AM49 °FOvercast.12 mph66%29.75 "Hg9 mi
9:00 AM49 °FDrizzle. Overcast.10 mph69%29.75 "Hg22 mi
8:00 AM49 °FLight rain. Overcast.10 mph66%29.74 "Hg22 mi
7:00 AM50 °FOvercast.12 mph64%29.72 "Hg10 mi
6:00 AM49 °FOvercast.12 mph74%29.73 "Hg13 mi
5:00 AM51 °FOvercast.15 mph67%29.73 "Hg10 mi
4:00 AM51 °FOvercast.15 mph66%29.69 "Hg12 mi
3:00 AM51 °FOvercast.15 mph71%29.71 "Hg15 mi
2:00 AM51 °FRain showers. Overcast.18 mph80%29.67 "Hg7 mi
1:00 AM57 °FOvercast.9 mph90%29.60 "Hg28 mi
12:00 AM58 °FOvercast.3 mph93%29.61 "Hg7 mi
11:00 PM
Oct 21
59 °FOvercast.7 mph94%29.65 "Hg9 mi
10:00 PM58 °FOvercast.5 mph98%29.68 "Hg4 mi
9:00 PM58 °FRain showers. Overcast.N/A96%29.72 "Hg4 mi
8:00 PM57 °FOvercast.3 mph97%29.74 "Hg5 mi
7:00 PM56 °FPassing clouds.5 mph96%29.77 "Hg11 mi
6:00 PM59 °FOvercast.N/A77%29.78 "Hg31 mi
5:00 PM63 °FOvercast.3 mph67%29.80 "Hg28 mi
Weather by CustomWeather, © 2014

See weather overviewHow to use our weather pages